Tracking 35237 objects as of 4-Sep-2026
HD Live streaming from Space Station
objects crossing your sky now

STARLINK-34744

Track STARLINK-34744 now!
10-day predictions
STARLINK-34744 is classified as:


NORAD ID: 64952
Int'l Code: 2025-158W
Launch date: July 26, 2025
Source: United States (US)
Launch site: AIR FORCE WESTERN TEST RANGE (AFWTR)
Your satellite tracking list
Your tracking list is empty




NASA's NSSDC Master Catalog

Two Line Element Set (TLE):
1 64952U 25158W   26247.66668980  .03003083  00000-0  13212+0 0  9992
2 64952  97.2895 106.2475 0001366  95.1995 293.3738 15.17959974  5802
Source of the keplerian elements: AFSPC